Tracking 18785 objects as of 21-July-2017
HD Live streaming from Space Station
objects crossing your sky now
MAYAK may become the brightest orbital object in the night sky!
Where is MAYAK now?
How to spot MAYAK

OSCAR 6

Track OSCAR 6 now!
10-day predictions
OSCAR 6 is classified as:


NORAD ID: 6236
Int'l Code: 1972-082B
Perigee: 1,455.7 km
Apogee: 1,461.4 km
Inclination: 101.7 °
Period: 114.9 minutes
Semi major axis: 7829 km
RCS: 0.279 m2 (medium)
Launch date: October 15, 1972
Source: United States (US)
Launch site: AIR FORCE WESTERN TEST RANGE (AFWTR)
Uplink (MHz): 145.900-146.000
Downlink (MHz): 29.450- 29.550
Beacon (MHz):
Mode: SSB CW
Call sign:
Status: Inactive

Your satellite tracking list
Your tracking list is empty





NASA's NSSDC Master Catalog

Two Line Element Set (TLE):
1  6236U 72082B   17201.47863024 -.00000046 +00000-0 -99163-5 0  9996
2  6236 101.7132 166.2154 0003673 255.7459 214.1555 12.53137968047396
Source of the keplerian elements: AFSPC